This is the latest recevied weather packets stored in our database for station/object F8BJE-13. If no packets are shown the sender has not sent any weather packets the latest 10 day(s).
| Time | Temp. | Humidity | Pressure | Rain* | Wind** | Luminosity | Snow |
|---|---|---|---|---|---|---|---|
| 1777588055 | 12.22° C | 52% | 1020.8 hPa | 0 mm | - | - | - |
| 1777587571 | 12.22° C | 52% | 1020.7 hPa | 0 mm | - | - | - |
| 1777585772 | 12.78° C | 51% | 1020.6 hPa | 0 mm | - | - | - |
| 1777584031 | 13.33° C | 49% | 1020.4 hPa | 0 mm | - | - | - |
| 1777582231 | 13.89° C | 48% | 1019.9 hPa | 0 mm | - | - | - |
| 1777581832 | 13.89° C | 48% | 1019.9 hPa | 0 mm | - | - | - |
| 1777580031 | 14.44° C | 46% | 1019.8 hPa | 0 mm | - | - | - |
| 1777579824 | 15° C | 45% | 1019.7 hPa | 0 mm | - | - | - |
| 1777578023 | 15.56° C | 42% | 1019.5 hPa | 0 mm | - | - | - |
| 1777576224 | 16.67° C | 42% | 1019.1 hPa | 0 mm | - | - | - |
| 1777574423 | 17.78° C | 40% | 1018.8 hPa | 0 mm | - | - | - |
| 1777572623 | 19.44° C | 40% | 1018.6 hPa | 0 mm | - | - | - |
| 1777570823 | 20.56° C | 33% | 1018.4 hPa | 0 mm | - | - | - |
| 1777569023 | 21.67° C | 32% | 1018 hPa | 0 mm | - | - | - |
| 1777567225 | 23.89° C | 31% | 1018 hPa | 0 mm | - | - | - |
| 1777565424 | 25.56° C | 26% | 1017.9 hPa | 0 mm | - | - | - |
| 1777563624 | 26.67° C | 26% | 1017.8 hPa | 0 mm | - | - | - |
| 1777561824 | 27.22° C | 28% | 1017.7 hPa | 0 mm | - | - | - |
| 1777560024 | 27.22° C | 28% | 1017.6 hPa | 0 mm | - | - | - |
| 1777558224 | 27.22° C | 30% | 1017.9 hPa | 0 mm | - | - | - |
| 1777556423 | 26.67° C | 29% | 1018.3 hPa | 0 mm | - | - | - |
| 1777554623 | 25.56° C | 28% | 1018.2 hPa | 0 mm | - | - | - |
| 1777552823 | 26.67° C | 29% | 1018.4 hPa | 0 mm | - | - | - |
| 1777551023 | 26.67° C | 28% | 1018.7 hPa | 0 mm | - | - | - |
| 1777549223 | 23.89° C | 32% | 1018.8 hPa | 0 mm | - | - | - |
* Rain latest hour (hover to see other rain measurements)
** Current wind speed in m/s (hover to see current wind gust speed)